Location: Lecco
(45.8500°N, 9.3830°E)
Time: 12:45:05
(UTC+02:00)

ISS - Visible Passes

Search period start: 11 May 2021 00:00
Search period end: 21 May 2021 00:00
Orbit: 418 x 421 km, 51.6° (Epoch: 11 May)

Date Brightness Start Highest point End Pass type
(mag) Time Alt. Az. Time Alt. Az. Time Alt. Az.
11 May -1.9 02:04:21 31° NNE 02:04:21 31° NNE 02:06:38 10° NE visible
11 May -1.8 03:37:45 10° WNW 03:40:49 30° N 03:43:52 10° ENE visible
11 May -3.4 05:14:37 10° WNW 05:18:00 72° NNE 05:21:21 10° ESE visible
12 May -1.1 01:18:16 17° NE 01:18:16 17° NE 01:19:12 10° ENE visible
12 May -1.8 02:51:12 16° NW 02:53:13 29° N 02:56:15 10° ENE visible
12 May -2.9 04:27:12 10° WNW 04:30:31 52° NNE 04:33:49 10° E visible
13 May -1.8 02:05:02 27° NNW 02:05:39 29° N 02:08:40 10° ENE visible
13 May -2.4 03:39:46 10° NW 03:42:59 40° NNE 03:46:13 10° E visible
13 May -3.5 05:16:36 10° WNW 05:19:53 49° SW 05:23:09 10° SE visible
14 May -1.8 01:18:38 30° NNE 01:18:38 30° NNE 01:21:09 10° ENE visible
14 May -2.0 02:52:19 10° NW 02:55:27 34° NNE 02:58:34 10° ENE visible
14 May -3.9 04:29:06 10° WNW 04:32:29 77° SSW 04:35:52 10° SE visible
14 May -3.8 22:50:14 10° SW 22:53:33 59° SSE 22:55:37 21° ENE visible
15 May -2.2 00:27:20 10° W 00:30:30 37° NNW 00:33:41 10° NE visible
15 May -1.8 02:04:49 10° WNW 02:07:52 30° N 02:10:55 10° ENE visible
15 May -3.6 03:41:40 10° WNW 03:45:03 72° NNE 03:48:26 10° ESE visible
15 May -3.3 22:03:03 10° SSW 22:06:11 37° SE 22:09:20 10° ENE visible
15 May -2.7 23:39:42 10° W 23:42:58 46° NNW 23:46:15 10° ENE visible
16 May -1.7 01:17:16 10° WNW 01:20:17 29° N 01:23:18 10° ENE visible
16 May -3.0 02:54:15 10° WNW 02:57:34 52° NNE 03:00:53 10° E visible
16 May -3.0 04:31:15 10° WNW 04:34:16 31° SW 04:37:18 10° SSE visible
16 May -3.3 22:52:08 10° WSW 22:55:28 62° NNW 22:58:49 10° ENE visible
17 May -1.7 00:29:40 10° WNW 00:32:41 29° N 00:35:43 10° ENE visible
17 May -2.4 02:06:49 10° NW 02:10:02 40° NNE 02:13:16 10° E visible
17 May -3.6 03:43:39 10° WNW 03:46:56 49° SW 03:50:11 10° SE visible
17 May -3.8 22:04:38 10° WSW 22:08:00 89° N 22:11:23 10° ENE visible
17 May -1.9 23:42:01 10° WNW 23:45:06 32° N 23:48:11 10° ENE visible
18 May -2.1 01:19:22 10° NW 01:22:29 34° NNE 01:22:56 32° NNE visible
18 May -2.2 22:54:22 10° W 22:57:32 37° NNW 23:00:43 10° NE visible
19 May -1.8 00:31:51 10° WNW 00:34:54 30° N 00:36:31 20° NE visible
19 May -1.3 02:08:42 10° WNW 02:09:26 16° WNW 02:09:26 16° WNW visible
19 May -2.6 22:06:44 10° W 22:10:00 46° NNW 22:13:16 10° ENE visible
19 May -1.7 23:44:18 10° WNW 23:47:18 29° N 23:50:19 10° ENE visible
20 May -2.1 01:21:17 10° WNW 01:23:17 31° NW 01:23:17 31° NW visible
20 May -1.8 22:56:42 10° WNW 22:59:42 29° N 23:02:44 10° ENE visible
